sat.trackr.live / text

‹ back to catalog

STARLINK-36512

NORAD 67504 · 2026-012M

PAYLOAD ACTIVE UNKNOWN

§ Identity

Operator
Country
US
Launch date
2026-01-18
Launch site
AFETR
Launch vehicle
Mass (kg)
RCS (m²)

Purposes: comms

External: N2YO · Heavens-Above · Gunter

§ Orbital elements

Epoch: 2026-09-19T19:32:31.759872Z

Period
94.27 min
Inclination
43.0007°
Eccentricity
0.0001714
Mean motion
15.27583056 rev/d
Perigee alt
481.9 km
Apogee alt
484.2 km
Semi-major
6,861.2 km
B*
2.7539e-4
RAAN
297.8289°
Arg perigee
268.4663°
Mean anomaly
91.5992°
Rev number
3,745

§ Raw data

STARLINK-365121 67504U 26012M   26262.81425648  .00007324  00000+0  27539-3 0  99932 67504  43.0007 297.8289 0001714 268.4663  91.5992 15.27583056 37457

JSON: /api/v1/satellites/67504 · /tle

For live sub-satellite position, see the globe view (requires WebGL).

§ Visibility from observer

Set your observer location to see the next 7 days of passes ≥ 10°. The values pass through the URL so the page stays shareable.

No JS? Fill the form by hand. The geolocation button needs JavaScript.